Wind_Speed
9 8 8 8 8 8 9 9 9 8 8 9 9 9 9 8 7 7 6 6 5 5 4 3 3 4 4 4 3 2 1 1 2 1 3 3 4 3 4 4 4 4 3
8 8 8 8 8 8 8 9 9 8 8 8 8 9 8 8 7 6 5 5 6 5 5 5 4 4 4 3 2 2 1 1 1 2 3 4 4 4 4 5 4 4 3
7 8 8 8 8 8 9 9 9 9 8 7 8 8 7 7 6 5 5 4 5 5 5 5 4 4 3 2 2 2 1 1 2 3 4 4 4 3 5 5 5 5 4
8 8 8 8 8 9 9 8 9 8 8 7 7 7 7 6 6 5 4 4 3 3 4 4 3 3 3 2 2 1 1 1 1 2 2 3 3 3 4 6 5 4 5
7 7 7 7 8 8 8 8 8 8 7 7 7 7 6 6 5 4 4 4 2 2 2 3 3 3 2 2 2 1 1 1 1 2 2 2 3 3 3 5 5 5 5
7 7 7 7 8 8 9 8 8 8 7 7 6 6 6 5 5 4 3 3 2 2 2 2 2 1 1 1 1 2 1 1 2 2 2 2 3 3 3 3 3 4 5
7 8 7 7 8 9 9 9 8 7 7 6 6 5 5 5 4 3 2 2 2 2 2 1 1 1 1 1 1 1 2 2 2 2 2 3 3 3 3 3 4 5 5
8 8 8 8 9 10 9 9 8 7 7 6 5 4 4 4 3 3 2 2 1 1 1 1 1 0 1 1 1 2 2 2 2 2 3 3 3 4 3 3 3 4 5
8 8 9 9 9 10 9 8 8 7 6 5 5 4 4 3 3 2 2 2 1 1 0 0 0 0 1 1 2 2 2 3 3 3 3 3 3 3 3 3 3 4 5
8 8 9 9 9 9 9 8 7 7 6 5 4 3 3 3 2 2 1 2 2 1 1 1 0 0 1 1 2 2 2 2 3 2 2 2 2 3 4 4 4 5 6
9 9 9 9 9 9 8 8 7 6 5 4 3 3 3 2 1 1 1 1 2 1 1 1 1 1 1 1 2 2 2 2 2 2 2 3 3 4 4 4 5 5 6
9 9 10 9 9 8 8 8 6 5 5 4 4 3 3 3 2 2 2 2 2 2 1 1 0 1 1 1 2 2 2 3 3 2 3 4 4 4 5 5 5 5 6
9 9 9 8 8 8 7 7 6 5 5 5 5 4 3 3 3 3 2 3 2 2 1 1 0 1 1 2 2 2 3 3 3 3 3 4 4 4 5 6 6 6 6
9 8 8 7 7 7 6 6 5 5 5 5 4 4 3 2 2 2 3 2 2 1 1 1 1 1 2 2 2 3 3 3 4 4 4 4 4 5 5 5 6 5 6
7 6 5 6 6 6 5 5 4 4 4 3 3 4 3 2 2 2 3 2 2 1 1 2 2 2 2 2 2 3 3 4 4 4 4 4 4 5 5 5 6 6 6
5 4 4 5 5 5 5 5 4 3 3 2 3 3 3 3 2 2 2 2 2 2 2 2 2 3 3 3 3 3 3 4 4 5 5 4 5 5 6 6 7 7 6
3 3 3 4 4 4 4 4 3 2 2 2 2 2 3 3 3 3 2 2 3 2 2 2 3 3 4 4 4 4 4 4 4 4 5 5 6 6 6 7 7 7 7
3 3 3 3 3 3 3 2 2 2 2 2 2 3 3 3 4 3 4 4 3 3 3 3 4 5 5 5 4 5 5 5 4 5 5 6 6 7 7 7 7 8 8
3 3 2 2 2 2 2 3 2 2 3 3 3 3 3 3 3 3 3 4 4 4 4 4 5 6 6 5 6 6 7 6 6 6 7 7 7 7 7 8 8 8 8
2 2 2 2 2 2 2 3 3 3 3 3 3 3 3 3 4 3 4 4 4 4 4 5 6 6 5 6 6 7 7 7 7 7 8 8 7 8 9 9 8 9 9
1 1 1 1 1 2 3 3 3 3 3 3 3 3 3 4 4 4 5 5 5 5 5 6 7 7 6 6 6 7 7 8 7 8 8 9 9 9 10 10 10 10 10
1 1 1 1 2 2 3 3 3 4 4 4 4 4 4 5 5 5 6 6 6 6 7 7 8 8 8 8 8 8 9 8 9 10 9 10 10 11 11 11 11 11 11
1 2 2 2 3 3 4 4 4 5 5 4 4 5 6 6 6 6 7 7 7 7 7 8 9 9 9 10 10 9 9 10 10 11 10 11 11 12 12 13 13 12 12
3 3 3 3 4 4 5 5 5 6 6 6 6 7 7 7 7 8 8 8 8 8 9 9 9 10 10 10 9 9 10 11 12 12 12 13 13 13 13 13 13 13 14
5 5 5 5 5 6 6 6 7 7 7 8 8 9 9 8 8 9 9 9 10 10 10 10 11 11 11 11 11 11 11 12 13 14 14 14 14 14 14 13 13 14 14
7 7 7 7 7 7 8 8 9 9 9 9 10 10 10 10 10 10 11 11 11 11 11 12 12 12 12 12 12 12 13 13 14 15 14 14 14 14 14 13 14 14 15
Wind_Direction
106 110 111 122 126 126 129 129 126 129 129 128 124 122 125 120 115 108 104 99 99 105 121 134 136 123 130 131 132 132 141 192 218 210 210 209 203 205 212 216 214 209 205
111 115 115 121 125 130 132 131 131 132 131 130 129 126 126 124 118 111 106 97 98 92 97 118 114 115 126 139 137 135 136 208 236 225 217 211 219 228 232 229 229 226 224
112 117 119 128 131 133 134 134 134 134 134 132 129 128 126 123 120 111 102 95 97 92 99 109 106 106 117 123 120 141 177 214 239 228 221 228 230 228 237 237 236 233 232
110 113 118 128 133 133 135 137 137 136 136 135 130 127 127 122 118 114 101 93 99 95 97 104 112 108 99 109 111 125 167 217 212 223 228 251 253 249 241 236 237 239 227
107 107 118 125 132 136 135 139 144 141 138 131 126 123 118 115 113 115 111 101 102 95 104 107 111 118 105 116 135 157 191 211 231 247 253 253 259 264 249 240 235 233 232
102 103 110 124 133 135 136 138 144 142 138 134 127 120 115 110 104 104 115 114 106 102 109 122 129 136 123 173 179 191 207 223 253 275 259 253 259 264 260 262 242 233 240
102 105 107 124 132 134 134 140 141 141 139 135 127 120 113 109 107 100 99 106 107 107 127 140 147 200 204 211 207 221 221 231 252 273 272 265 262 270 272 276 259 246 246
101 105 111 119 125 131 131 135 139 136 137 133 126 122 113 99 99 97 92 99 104 101 129 124 156 231 216 215 214 233 238 247 241 260 272 276 267 270 268 281 276 260 254
99 102 105 113 123 125 126 128 134 131 123 122 118 110 103 93 92 89 88 85 99 90 98 182 194 208 208 213 228 247 238 243 246 250 266 268 264 273 273 286 287 283 277
101 102 105 110 115 118 118 121 129 127 120 108 100 93 93 91 95 89 88 94 101 88 34 16 25 19 263 236 245 251 247 244 257 252 260 259 262 277 290 283 281 282 284
104 103 105 104 108 112 115 117 120 117 112 98 91 82 86 93 95 98 96 114 117 91 63 12 295 298 299 267 257 257 268 263 276 277 251 255 271 275 287 282 283 286 282
107 108 107 103 105 110 113 114 111 105 103 94 84 85 89 91 90 89 81 110 121 102 77 46 348 319 326 298 267 269 273 262 265 275 258 260 269 274 284 286 285 284 280
111 114 112 106 107 113 114 112 106 100 94 90 87 88 94 93 88 90 92 105 115 110 85 47 15 324 328 311 286 275 268 272 262 254 253 262 269 274 281 289 289 290 286
114 116 114 108 104 107 108 105 99 100 94 86 72 62 63 71 76 76 87 94 96 93 78 355 331 319 313 313 302 290 277 269 267 257 258 262 264 268 279 291 295 295 291
108 110 109 104 102 101 105 105 97 98 91 77 61 50 49 52 59 58 50 53 37 9 327 316 309 306 302 300 306 293 286 280 264 257 260 266 266 268 278 287 294 297 294
100 102 104 115 112 108 109 104 98 98 80 70 59 50 42 29 16 21 36 17 356 345 329 316 304 304 304 306 303 298 300 293 275 266 268 275 282 278 280 284 290 295 294
85 87 86 105 110 109 107 102 100 84 50 40 38 34 24 12 7 12 4 352 349 352 334 313 295 291 299 298 296 295 301 302 280 269 270 276 278 282 287 288 292 290 291
76 69 73 81 88 105 92 72 75 54 20 8 9 12 8 5 359 359 353 342 341 336 320 310 308 289 290 292 291 287 293 298 285 279 274 274 278 286 289 289 293 292 293
68 63 57 66 75 75 53 45 49 39 23 13 9 9 1 355 352 349 348 342 333 326 318 306 306 290 281 283 286 281 288 296 288 287 288 278 275 280 286 286 290 290 289
65 55 54 68 62 43 27 26 23 10 2 360 352 353 359 358 348 342 336 335 341 332 317 308 301 298 286 290 288 281 283 292 293 294 290 285 280 284 286 287 288 288 287
41 22 40 59 32 17 6 359 0 352 343 341 334 327 335 338 337 328 320 318 320 318 315 317 309 307 295 297 297 295 294 294 293 294 293 290 284 283 284 288 289 289 285
13 359 334 325 331 334 332 328 331 332 329 330 328 317 318 324 329 328 323 317 315 313 308 309 311 309 300 299 296 295 293 292 294 294 294 294 289 288 287 288 290 289 289
328 328 320 309 305 306 311 312 317 319 318 319 312 309 307 311 317 319 320 321 319 314 309 306 306 302 297 296 295 297 295 294 295 293 292 294 292 291 290 288 289 289 289
297 304 305 306 307 305 301 305 309 310 310 308 303 303 303 304 306 307 310 313 313 310 308 306 305 305 304 301 299 301 300 301 299 294 292 292 291 289 288 290 289 289 286
284 290 292 289 294 302 301 300 301 304 302 300 299 296 295 297 299 303 305 305 304 306 306 305 303 301 302 303 300 299 299 299 298 295 292 292 291 290 287 288 288 287 288
280 279 282 283 288 294 296 297 299 302 301 296 295 294 293 296 296 297 300 302 301 301 303 302 299 297 299 301 300 299 297 295 297 296 293 293 290 290 288 286 288 287 289
Height
5885 5884 5884 5884 5885 5885 5885 5885 5886 5886 5887 5887 5888 5888 5888 5888 5888 5889 5889 5889 5888 5888 5886 5886 5889 5890 5890 5891 5891 5892 5892 5892 5893 5893 5893 5893 5893 5894 5894 5894 5894 5894 5894
5885 5885 5885 5885 5885 5885 5886 5886 5887 5887 5888 5888 5889 5889 5889 5889 5889 5889 5889 5889 5889 5888 5886 5886 5889 5890 5891 5891 5891 5892 5892 5892 5892 5893 5893 5893 5893 5893 5893 5893 5893 5893 5893
5885 5885 5885 5885 5885 5886 5886 5887 5887 5888 5889 5889 5889 5889 5889 5890 5890 5890 5890 5890 5889 5889 5888 5889 5890 5890 5891 5891 5892 5892 5892 5892 5892 5892 5892 5892 5892 5892 5892 5892 5893 5893 5893
5885 5885 5885 5885 5885 5886 5886 5888 5888 5889 5889 5890 5890 5890 5890 5890 5890 5890 5890 5890 5890 5890 5890 5890 5890 5891 5891 5891 5892 5892 5892 5892 5892 5892 5892 5892 5892 5892 5892 5892 5892 5893 5893
5886 5885 5884 5884 5885 5886 5887 5888 5889 5889 5890 5890 5890 5891 5891 5891 5891 5891 5891 5890 5890 5890 5890 5890 5891 5891 5891 5891 5891 5892 5892 5892 5892 5892 5892 5892 5892 5892 5892 5892 5892 5892 5892
5886 5884 5883 5882 5884 5885 5887 5888 5889 5890 5890 5891 5891 5891 5891 5891 5891 5891 5890 5890 5890 5890 5891 5891 5891 5891 5891 5891 5891 5891 5892 5892 5892 5892 5892 5892 5892 5892 5892 5892 5891 5892 5892
5886 5885 5883 5882 5883 5885 5887 5889 5890 5890 5891 5892 5892 5892 5891 5891 5891 5891 5890 5890 5890 5890 5890 5891 5891 5891 5891 5891 5891 5891 5891 5892 5892 5892 5892 5891 5891 5891 5891 5891 5891 5891 5891
5887 5886 5884 5882 5883 5886 5888 5890 5891 5891 5892 5892 5892 5892 5892 5892 5891 5891 5890 5890 5890 5890 5890 5890 5891 5891 5891 5891 5891 5891 5891 5891 5891 5891 5891 5891 5891 5891 5891 5890 5890 5890 5890
5889 5888 5886 5886 5886 5888 5890 5891 5892 5892 5893 5893 5893 5892 5892 5892 5891 5891 5890 5890 5890 5890 5890 5890 5890 5890 5890 5890 5890 5891 5891 5890 5890 5891 5890 5890 5891 5890 5890 5890 5890 5890 5890
5891 5891 5890 5890 5890 5891 5892 5892 5893 5893 5893 5893 5893 5893 5892 5892 5891 5890 5890 5889 5889 5890 5890 5890 5890 5890 5890 5890 5890 5890 5890 5890 5890 5890 5890 5890 5890 5890 5890 5890 5889 5889 5889
5893 5893 5893 5892 5893 5893 5893 5893 5894 5894 5894 5894 5893 5893 5892 5892 5891 5890 5889 5888 5889 5889 5890 5890 5890 5890 5890 5890 5890 5889 5889 5890 5889 5889 5889 5889 5889 5889 5889 5889 5889 5888 5888
5895 5895 5894 5894 5894 5894 5894 5894 5895 5895 5894 5894 5894 5893 5892 5892 5891 5889 5888 5888 5888 5889 5889 5890 5890 5890 5890 5889 5889 5889 5889 5889 5889 5889 5889 5889 5889 5889 5888 5888 5888 5887 5887
5897 5896 5896 5896 5896 5896 5896 5896 5896 5896 5895 5895 5894 5894 5893 5892 5891 5890 5889 5888 5888 5889 5889 5889 5889 5890 5889 5889 5889 5888 5888 5888 5888 5888 5888 5888 5888 5888 5888 5887 5887 5886 5886
5898 5898 5898 5898 5898 5898 5897 5897 5897 5897 5896 5896 5895 5894 5894 5893 5892 5891 5890 5889 5889 5889 5890 5890 5890 5889 5889 5888 5888 5888 5887 5887 5887 5887 5887 5887 5887 5887 5887 5886 5886 5885 5885
5900 5900 5899 5899 5899 5899 5899 5898 5898 5898 5897 5897 5896 5895 5894 5893 5893 5892 5891 5891 5890 5890 5890 5890 5890 5889 5889 5888 5888 5887 5887 5886 5886 5886 5886 5886 5886 5886 5886 5885 5884 5884 5884
5902 5901 5901 5900 5900 5900 5899 5899 5899 5898 5898 5897 5896 5895 5894 5894 5893 5892 5892 5891 5890 5890 5890 5890 5889 5889 5888 5888 5888 5887 5886 5886 5885 5885 5885 5885 5885 5885 5884 5884 5883 5883 5882
5902 5902 5901 5901 5901 5900 5900 5900 5899 5899 5898 5898 5897 5896 5895 5894 5894 5893 5892 5891 5891 5890 5889 5889 5889 5888 5888 5887 5887 5887 5886 5885 5885 5884 5884 5884 5884 5883 5883 5882 5882 5881 5881
5904 5903 5902 5902 5901 5901 5901 5900 5900 5899 5899 5898 5897 5896 5895 5894 5894 5893 5892 5891 5890 5890 5889 5889 5888 5887 5887 5886 5886 5885 5885 5884 5883 5883 5882 5883 5882 5882 5881 5881 5880 5880 5879
5904 5904 5903 5903 5902 5902 5901 5901 5900 5899 5898 5898 5897 5896 5895 5894 5893 5893 5892 5891 5890 5889 5888 5888 5887 5886 5886 5885 5884 5884 5883 5883 5882 5881 5881 5881 5881 5880 5880 5879 5878 5878 5877
5905 5904 5904 5903 5903 5902 5902 5901 5900 5899 5899 5897 5896 5895 5895 5894 5893 5892 5891 5890 5889 5889 5888 5887 5886 5885 5884 5884 5883 5883 5882 5882 5881 5880 5880 5879 5879 5878 5878 5877 5876 5876 5875
5905 5905 5904 5903 5903 5902 5902 5901 5900 5899 5898 5897 5896 5895 5894 5893 5892 5891 5890 5889 5889 5888 5887 5886 5885 5884 5883 5882 5882 5881 5881 5880 5879 5879 5878 5877 5877 5876 5876 5875 5874 5873 5872
5906 5905 5904 5904 5903 5902 5902 5901 5900 5899 5898 5897 5896 5895 5894 5893 5892 5890 5889 5888 5887 5887 5886 5885 5884 5883 5882 5881 5881 5880 5880 5879 5878 5877 5876 5875 5875 5874 5873 5872 5871 5870 5869
5906 5905 5905 5904 5903 5902 5901 5900 5899 5898 5897 5896 5895 5894 5893 5892 5891 5890 5888 5887 5886 5885 5884 5883 5882 5881 5880 5879 5878 5878 5877 5877 5876 5875 5874 5873 5872 5871 5870 5869 5868 5867 5866
5906 5905 5904 5903 5902 5901 5900 5900 5899 5897 5896 5895 5894 5893 5892 5890 5889 5888 5887 5886 5885 5884 5883 5881 5881 5880 5878 5877 5876 5876 5875 5874 5873 5872 5872 5870 5869 5868 5867 5865 5864 5863 5862
5905 5904 5903 5902 5901 5900 5899 5898 5897 5896 5894 5893 5892 5891 5890 5889 5888 5887 5886 5884 5883 5882 5881 5880 5879 5878 5876 5875 5874 5874 5873 5871 5870 5869 5868 5867 5866 5864 5863 5862 5861 5860 5859
5903 5903 5902 5901 5900 5899 5898 5896 5895 5894 5893 5891 5890 5889 5887 5886 5885 5884 5884 5882 5881 5880 5879 5878 5877 5875 5874 5873 5872 5871 5870 5869 5867 5866 5864 5863 5862 5861 5859 5858 5857 5856 5855